This is the latest recevied weather packets stored in our database for station/object W8KVG. If no packets are shown the sender has not sent any weather packets the latest 1 day(s).
| Time | Temp. | Humidity | Pressure | Rain* | Wind** | Luminosity | Snow |
|---|---|---|---|---|---|---|---|
| 1777992120 | 20.56° C | 61% | 1007.1 hPa | 0 mm | 0 m/s | 126 W/m² | - |
| 1777991817 | 20° C | 61% | 1007.2 hPa | 0 mm | 0.45 m/s, 215° | 138 W/m² | - |
| 1777991515 | 20° C | 61% | 1007.1 hPa | 0 mm | 0 m/s | 118 W/m² | - |
| 1777991211 | 20.56° C | 60% | 1007.2 hPa | 0 mm | 0.89 m/s, 168° | 131 W/m² | - |
| 1777990909 | 20.56° C | 61% | 1007.4 hPa | 0 mm | 0 m/s | 145 W/m² | - |
| 1777990607 | 20.56° C | 61% | 1007.4 hPa | 0 mm | 0.89 m/s, 335° | 151 W/m² | - |
| 1777990303 | 20° C | 62% | 1007.6 hPa | 0 mm | 1.79 m/s, 347° | 122 W/m² | - |
| 1777989999 | 20° C | 61% | 1007.7 hPa | 0 mm | 2.24 m/s, 338° | 114 W/m² | - |
| 1777989697 | 20.56° C | 61% | 1007.6 hPa | 0 mm | 1.34 m/s, 184° | 125 W/m² | - |
| 1777989392 | 20° C | 61% | 1007.6 hPa | 0 mm | 2.24 m/s, 343° | 127 W/m² | - |
| 1777989089 | 20° C | 61% | 1007.7 hPa | 0 mm | 0.45 m/s, 272° | 125 W/m² | - |
| 1777988785 | 20° C | 62% | 1007.7 hPa | 0 mm | 0.89 m/s, 21° | 124 W/m² | - |
| 1777988483 | 20° C | 63% | 1007.5 hPa | 0 mm | 0.45 m/s, 329° | 121 W/m² | - |
| 1777988180 | 20° C | 62% | 1007.6 hPa | 0 mm | 1.79 m/s, 301° | 115 W/m² | - |
| 1777987875 | 20° C | 61% | 1007.5 hPa | 0 mm | 1.34 m/s, 222° | 115 W/m² | - |
| 1777987572 | 20° C | 61% | 1007.5 hPa | 0 mm | 0 m/s | 120 W/m² | - |
| 1777987270 | 20° C | 61% | 1007.6 hPa | 0 mm | 1.34 m/s, 235° | 100 W/m² | - |
| 1777986966 | 20° C | 63% | 1007.6 hPa | 0 mm | 0.89 m/s, 351° | 133 W/m² | - |
| 1777986664 | 20° C | 63% | 1007.7 hPa | 0 mm | 2.68 m/s, 359° | 115 W/m² | - |
| 1777986362 | 20° C | 61% | 1007.5 hPa | 0 mm | 1.34 m/s, 253° | 118 W/m² | - |
| 1777986060 | 20° C | 63% | 1007.7 hPa | 0 mm | 0.45 m/s, 263° | 100 W/m² | - |
| 1777985756 | 19.44° C | 64% | 1007.6 hPa | 0 mm | 1.34 m/s, 181° | 94 W/m² | - |
| 1777985453 | 19.44° C | 64% | 1007.7 hPa | 0 mm | 0 m/s | 71 W/m² | - |
| 1777985149 | 19.44° C | 65% | 1007.7 hPa | 0 mm | 0.89 m/s, 318° | 80 W/m² | - |
| 1777984846 | 19.44° C | 65% | 1007.8 hPa | 0 mm | 2.24 m/s, 202° | 75 W/m² | - |
* Rain latest hour (hover to see other rain measurements)
** Current wind speed in m/s (hover to see current wind gust speed)